[Iaude] MPEC K224: 2020 KT6 [a=2.25,e=0.54,i=13.1,H=26.9]

mpec at marsden.cfa.harvard.edu mpec at marsden.cfa.harvard.edu
Sat May 30 07:54:49 EDT 2020


M.P.E.C. 2020-K224                                 Issued 2020 May 30, 11:53 UT

     The Minor Planet Electronic Circulars contain information on unusual
         minor planets and routine data on comets.  They are published
    on behalf of Division F of the International Astronomical Union by the
          Minor Planet Center, Smithsonian Astrophysical Observatory,
                          Cambridge, MA 02138, U.S.A.

             Prepared using the Tamkin Foundation Computer Network

                              MPC at CFA.HARVARD.EDU
            URL https://www.minorplanetcenter.net/    ISSN 1523-6714

                                    2020 KT6                                    


Observations:
     K20K06T* C2020 05 29.47762816 01 56.106+07 41 01.27         20.30wUEK224F51
     K20K06T  C2020 05 29.49008416 02 09.464+07 34 29.20         20.48wUEK224F51
     K20K06T  C2020 05 29.51495316 02 36.390+07 21 23.47         20.47wUEK224F51
     K20K06T hC2020 05 30.03511016 13 37.55 +02 26 33.3          20.3 GVEK224L01
     K20K06T hC2020 05 30.03719516 13 40.14 +02 25 18.0          20.3 GVEK224L01
     K20K06T hC2020 05 30.04137816 13 45.46 +02 22 46.3          20.2 GVEK224L01
     K20K06T KC2020 05 30.06996516 14 25.83 +02 05 08.6          19.8 GVEK224J95
     K20K06T KC2020 05 30.07716616 14 34.99 +02 00 46.4          20.4 GVEK224J95
     K20K06T KC2020 05 30.08338016 14 42.92 +01 57 00.6          20.0 GVEK224J95
     K20K06T KC2020 05 30.28558 16 19 26.55 -00 07 32.5          19.9 GVEK224H36
     K20K06T KC2020 05 30.28915 16 19 31.27 -00 09 48.9          20.2 GVEK224H36
     K20K06T KC2020 05 30.29272 16 19 35.94 -00 12 04.5          20.1 GVEK224H36
     K20K06T KC2020 05 30.29629 16 19 40.60 -00 14 20.7          20.4 GVEK224H36
     K20K06T  C2020 05 30.30031 16 19 50.55 -00 16 22.9          19.5 GVEK224I52
     K20K06T  C2020 05 30.30143 16 19 52.03 -00 17 05.6          19.5 GVEK224I52
     K20K06T  C2020 05 30.30256 16 19 53.48 -00 17 48.7          19.6 GVEK224I52
     K20K06T  C2020 05 30.30368 16 19 54.92 -00 18 32.0          19.5 GVEK224I52

Observer details:
F51 Pan-STARRS 1, Haleakala.  Observers J. Bulger, T. Lowe, A. Schultz, M.
    Willman.  Measurers K. Chambers, S. Chastel, T. de Boer, L. Denneau, J.
    Fairlamb, H. Flewelling, M. Huber, C.-C. Lin, E. Magnier, Y. Ramanjooloo,
    R. Wainscoat, R. Weryk.  1.8-m Ritchey-Chretien + CCD.
H36 Sandlot Observatory, Scranton.  Observer G. Hug.  0.56-m reflector + CCD.
I52 Steward Observatory, Mt. Lemmon Station.  Observer R. A. Kowalski.
    Measurers E. J. Christensen, G. A. Farneth, D. C. Fuls, A. R. Gibbs, A. D.
    Grauer, H. Groeller, R. A. Kowalski, S. M. Larson, G. J. Leonard, T. A.
    Pruyne, D. Rankin, R. L. Seaman, F. C. Shelly, K. W. Wierzchos.  1.0-m
    reflector + CCD.
J95 Great Shefford.  Observer P. Birtwhistle.  0.41-m f/6.3 Schmidt-Cassegrain
    + CCD.
L01 Visnjan Observatory, Tican.  Observer K. Korlevic.  1.0-m f/2.9 reflector
    + CCD.

Orbital elements:
2020 KT6                                                 Earth MOID = 0.0218 AU
Epoch 2020 May 31.0 TT = JDT 2459000.5                  Veres
M 358.96756              (2000.0)            P               Q
n   0.29179650     Peri.  182.73778     -0.28033188     +0.93564722
a   2.2512100      Node    71.05240     -0.87633041     -0.15829528
e   0.5399696      Incl.   13.10343     -0.39173849     -0.31544713
P   3.38           H   26.9           G   0.15           U   7
Residuals in seconds of arc
200529 F51  0.1-  0.2+    200530 J95  0.4-  0.3+    200530 H36  0.8+  0.2+
200529 F51  0.1+  0.3-    200530 J95  0.1-  0.4-    200530 I52  0.3-  0.1+
200529 F51  0.0   0.1+    200530 J95  0.2+  0.1-    200530 I52  0.2+  0.2+
200530 L01  0.2-  0.6+    200530 H36  0.9-  0.1+    200530 I52  0.0   0.3+
200530 L01  0.4-  0.4+    200530 H36  0.3+  0.3-    200530 I52  0.1-  0.2-
200530 L01  0.8+  0.6-    200530 H36  0.6+  0.2+

Ephemeris:
2020 KT6                 a,e,i = 2.25, 0.54, 13                  q = 1.0356
Date    TT    R. A. (2000) Decl.     Delta      r    Elong.  Phase     V
2020 04 30    14 03 39.8 +43 00 33   0.1889  1.1187   121.9    49.8    25.4
...
2020 05 15    14 20 11.1 +41 14 07   0.1037  1.0634   117.9    57.2    24.2
...
2020 05 23    14 49 36.4 +34 17 37   0.05878 1.0454   122.6    54.6    22.8
...
2020 05 29    15 53 04.7 +11 36 02   0.02919 1.0379   145.9    33.2    20.7
2020 05 30    16 12 58.0 +02 51 50   0.02574 1.0372   155.1    24.3    20.2
2020 05 31    16 37 39.3 -08 09 06   0.02331 1.0366   166.2    13.5    19.6
...
2020 06 06    20 50 39.2 -59 00 46   0.03607 1.0360   125.4    53.0    21.7
...
2020 06 14    23 38 52.4 -59 26 35   0.07846 1.0436   108.8    67.1    23.8
...
2020 06 29    00 28 12.4 -56 36 05   0.1613  1.0819   109.8    62.1    25.3

M. P. C. Staff               (C) Copyright 2020 MPC           M.P.E.C. 2020-K224




More information about the Iaude mailing list